www.cux-wetter.de
Wetterdaten: Donnerstag, 01.12.2011
Datum Zeit Temp. A. Feuchte A. Luftdruck Regen Wind Richtung Richtung Sonnenschein Solar Taupunkt Windchill Windben
01.12.2011 00:00 6,8 C 84 % 1020,5 hPa 0,0 l/m 24,0 km/h (4 Bft) SW 225 0 min 0 W/m 4,3 C -2,2 C 24,0 km/h (4 Bft)
01.12.2011 00:15 6,8 C 83 % 1019,5 hPa 0,0 l/m 22,0 km/h (4 Bft) SW 225 0 min 0 W/m 4,1 C -1,6 C 22,0 km/h (4 Bft)
01.12.2011 00:30 6,8 C 83 % 1019,5 hPa 0,0 l/m 24,3 km/h (4 Bft) SW 225 0 min 0 W/m 4,1 C -2,3 C 24,3 km/h (4 Bft)
01.12.2011 00:45 6,8 C 83 % 1019,5 hPa 0,0 l/m 23,6 km/h (4 Bft) SW 230 0 min 0 W/m 4,1 C -2,1 C 23,6 km/h (4 Bft)
01.12.2011 01:00 6,8 C 83 % 1019,5 hPa 0,0 l/m 23,6 km/h (4 Bft) SW 215 0 min 0 W/m 4,1 C -2,1 C 23,6 km/h (4 Bft)
01.12.2011 01:15 6,8 C 83 % 1019,5 hPa 0,0 l/m 23,3 km/h (4 Bft) SW 225 0 min 0 W/m 4,1 C -2,0 C 23,3 km/h (4 Bft)
01.12.2011 01:29 6,8 C 82 % 1018,5 hPa 0,0 l/m 25,0 km/h (4 Bft) SW 235 0 min 0 W/m 3,9 C -2,5 C 25,0 km/h (4 Bft)
01.12.2011 01:45 6,9 C 82 % 1018,5 hPa 0,0 l/m 28,0 km/h (5 Bft) SW 225 0 min 0 W/m 4,0 C -3,2 C 28,0 km/h (5 Bft)
01.12.2011 02:00 6,9 C 81 % 1017,5 hPa 0,0 l/m 26,8 km/h (4 Bft) SW 225 0 min 0 W/m 3,9 C -2,9 C 26,8 km/h (4 Bft)
01.12.2011 02:15 7,0 C 81 % 1017,5 hPa 0,0 l/m 22,3 km/h (4 Bft) S-SW 205 0 min 0 W/m 4,0 C -1,4 C 22,3 km/h (4 Bft)
01.12.2011 02:30 6,9 C 81 % 1017,5 hPa 0,0 l/m 20,1 km/h (4 Bft) S-SW 200 0 min 0 W/m 3,9 C -0,8 C 20,1 km/h (4 Bft)
01.12.2011 02:45 6,9 C 80 % 1017,5 hPa 0,0 l/m 23,9 km/h (4 Bft) SW 215 0 min 0 W/m 3,7 C -2,0 C 23,9 km/h (4 Bft)
01.12.2011 03:00 6,8 C 80 % 1016,5 hPa 0,0 l/m 25,8 km/h (4 Bft) SW 215 0 min 0 W/m 3,6 C -2,7 C 25,8 km/h (4 Bft)
01.12.2011 03:15 6,8 C 80 % 1016,5 hPa 0,0 l/m 30,4 km/h (5 Bft) SW 225 0 min 0 W/m 3,6 C -3,9 C 30,4 km/h (5 Bft)
01.12.2011 03:30 6,8 C 80 % 1016,5 hPa 0,0 l/m 25,3 km/h (4 Bft) SW 225 0 min 0 W/m 3,6 C -2,6 C 25,3 km/h (4 Bft)
01.12.2011 03:45 6,8 C 79 % 1015,5 hPa 0,0 l/m 27,8 km/h (5 Bft) S-SW 205 0 min 0 W/m 3,4 C -3,3 C 27,8 km/h (5 Bft)
01.12.2011 04:00 6,7 C 79 % 1015,5 hPa 0,0 l/m 24,0 km/h (4 Bft) S-SW 205 0 min 0 W/m 3,3 C -2,3 C 24,0 km/h (4 Bft)
01.12.2011 04:15 6,6 C 79 % 1014,5 hPa 0,0 l/m 28,5 km/h (5 Bft) S-SW 205 0 min 0 W/m 3,2 C -3,7 C 28,5 km/h (5 Bft)
01.12.2011 04:30 6,6 C 79 % 1014,5 hPa 0,0 l/m 24,8 km/h (4 Bft) SW 215 0 min 0 W/m 3,2 C -2,7 C 24,8 km/h (4 Bft)
01.12.2011 04:45 6,6 C 79 % 1014,5 hPa 0,0 l/m 24,7 km/h (4 Bft) S-SW 210 0 min 0 W/m 3,2 C -2,7 C 24,7 km/h (4 Bft)
01.12.2011 05:00 6,5 C 78 % 1013,5 hPa 0,0 l/m 24,8 km/h (4 Bft) S-SW 195 0 min 0 W/m 2,9 C -2,9 C 24,8 km/h (4 Bft)
01.12.2011 05:15 6,4 C 78 % 1012,5 hPa 0,0 l/m 28,3 km/h (5 Bft) S 190 0 min 0 W/m 2,8 C -4,0 C 28,3 km/h (5 Bft)
01.12.2011 05:30 6,2 C 77 % 1012,5 hPa 0,0 l/m 27,5 km/h (5 Bft) S-SW 205 0 min 0 W/m 2,5 C -4,0 C 27,5 km/h (5 Bft)
01.12.2011 05:45 6,2 C 77 % 1011,5 hPa 0,0 l/m 25,1 km/h (4 Bft) S 190 0 min 0 W/m 2,5 C -3,3 C 25,1 km/h (4 Bft)
01.12.2011 06:00 6,2 C 77 % 1011,5 hPa 0,0 l/m 28,0 km/h (5 Bft) S-SW 210 0 min 0 W/m 2,5 C -4,2 C 28,0 km/h (5 Bft)
01.12.2011 06:15 6,0 C 77 % 1010,5 hPa 0,0 l/m 28,3 km/h (5 Bft) SW 220 0 min 0 W/m 2,3 C -4,5 C 28,3 km/h (5 Bft)
01.12.2011 06:30 6,1 C 77 % 1010,5 hPa 0,0 l/m 30,1 km/h (5 Bft) SW 215 0 min 0 W/m 2,4 C -4,9 C 30,1 km/h (5 Bft)
01.12.2011 06:44 6,2 C 77 % 1010,5 hPa 0,0 l/m 35,1 km/h (5 Bft) SW 225 0 min 0 W/m 2,5 C -5,8 C 35,1 km/h (5 Bft)
01.12.2011 07:00 6,2 C 77 % 1010,5 hPa 0,0 l/m 27,6 km/h (5 Bft) SW 220 0 min 0 W/m 2,5 C -4,1 C 27,6 km/h (5 Bft)
01.12.2011 07:15 6,2 C 78 % 1010,5 hPa 0,0 l/m 31,8 km/h (5 Bft) SW 225 0 min 0 W/m 2,7 C -5,1 C 31,8 km/h (5 Bft)
01.12.2011 07:30 6,4 C 78 % 1009,5 hPa 0,0 l/m 34,8 km/h (5 Bft) SW 220 0 min 0 W/m 2,8 C -5,5 C 34,8 km/h (5 Bft)
01.12.2011 07:45 6,5 C 78 % 1009,5 hPa 0,0 l/m 29,1 km/h (5 Bft) SW 220 0 min 0 W/m 2,9 C -4,0 C 29,1 km/h (5 Bft)
01.12.2011 08:00 6,7 C 78 % 1009,5 hPa 0,0 l/m 35,3 km/h (5 Bft) SW 225 0 min 0 W/m 3,1 C -5,1 C 35,3 km/h (5 Bft)
01.12.2011 08:15 6,9 C 79 % 1009,5 hPa 0,0 l/m 32,4 km/h (5 Bft) SW 220 0 min 0 W/m 3,5 C -4,3 C 32,4 km/h (5 Bft)
01.12.2011 08:30 7,1 C 79 % 1008,5 hPa 0,0 l/m 34,0 km/h (5 Bft) SW 235 0 min 0 W/m 3,7 C -4,3 C 34,0 km/h (5 Bft)
01.12.2011 08:45 7,2 C 79 % 1008,5 hPa 0,0 l/m 36,4 km/h (5 Bft) SW 220 0 min 0 W/m 3,8 C -4,6 C 36,4 km/h (5 Bft)
01.12.2011 09:00 7,3 C 81 % 1008,5 hPa 0,0 l/m 31,7 km/h (5 Bft) SW 225 0 min 0 W/m 4,3 C -3,5 C 31,7 km/h (5 Bft)
01.12.2011 09:15 7,3 C 83 % 1008,5 hPa 0,0 l/m 37,6 km/h (5 Bft) SW 225 0 min 0 W/m 4,6 C -4,7 C 37,6 km/h (5 Bft)
01.12.2011 09:30 7,5 C 83 % 1007,5 hPa 0,0 l/m 36,5 km/h (5 Bft) SW 225 0 min 0 W/m 4,8 C -4,2 C 36,5 km/h (5 Bft)
01.12.2011 09:45 7,6 C 84 % 1007,5 hPa 0,3 l/m 33,0 km/h (5 Bft) W-SW 245 0 min 0 W/m 5,1 C -3,4 C 33,0 km/h (5 Bft)
01.12.2011 10:00 7,6 C 85 % 1007,5 hPa 0,0 l/m 40,2 km/h (6 Bft) W-SW 240 0 min 0 W/m 5,2 C -4,7 C 40,2 km/h (6 Bft)
01.12.2011 10:15 7,6 C 86 % 1007,5 hPa 0,0 l/m 38,4 km/h (6 Bft) W-SW 240 0 min 0 W/m 5,4 C -4,4 C 38,4 km/h (6 Bft)
01.12.2011 10:30 7,7 C 87 % 1007,5 hPa 0,0 l/m 35,0 km/h (5 Bft) W-SW 250 0 min 0 W/m 5,7 C -3,6 C 35,0 km/h (5 Bft)
01.12.2011 10:45 7,6 C 88 % 1007,5 hPa 0,0 l/m 33,7 km/h (5 Bft) W-SW 240 0 min 0 W/m 5,7 C -3,5 C 33,7 km/h (5 Bft)
01.12.2011 10:59 7,5 C 89 % 1007,5 hPa 0,0 l/m 31,5 km/h (5 Bft) SW 235 0 min 0 W/m 5,8 C -3,2 C 31,5 km/h (5 Bft)
01.12.2011 11:15 7,7 C 90 % 1007,5 hPa 0,0 l/m 30,5 km/h (5 Bft) W-SW 245 0 min 0 W/m 6,2 C -2,7 C 30,5 km/h (5 Bft)
01.12.2011 11:30 7,9 C 91 % 1007,5 hPa 0,0 l/m 29,5 km/h (5 Bft) W-SW 245 0 min 0 W/m 6,5 C -2,2 C 29,5 km/h (5 Bft)
01.12.2011 11:45 8,4 C 91 % 1007,5 hPa 0,0 l/m 37,2 km/h (5 Bft) W-SW 255 0 min 0 W/m 7,0 C -3,0 C 37,2 km/h (5 Bft)
01.12.2011 12:00 8,8 C 90 % 1006,5 hPa 0,0 l/m 38,7 km/h (6 Bft) W-SW 255 0 min 0 W/m 7,3 C -2,7 C 38,7 km/h (6 Bft)
01.12.2011 12:15 9,1 C 90 % 1006,5 hPa 0,0 l/m 40,9 km/h (6 Bft) W 270 0 min 0 W/m 7,5 C -2,6 C 40,9 km/h (6 Bft)
01.12.2011 12:30 9,2 C 90 % 1006,5 hPa 0,0 l/m 40,7 km/h (6 Bft) W 265 0 min 0 W/m 7,6 C -2,4 C 40,7 km/h (6 Bft)
01.12.2011 12:45 9,4 C 90 % 1006,5 hPa 0,0 l/m 37,5 km/h (5 Bft) W 260 0 min 0 W/m 7,8 C -1,6 C 37,5 km/h (5 Bft)
01.12.2011 13:00 9,6 C 90 % 1006,5 hPa 0,0 l/m 37,2 km/h (5 Bft) W 260 0 min 0 W/m 8,0 C -1,3 C 37,2 km/h (5 Bft)
01.12.2011 13:14 9,8 C 90 % 1006,5 hPa 0,0 l/m 37,3 km/h (5 Bft) W-SW 250 0 min 0 W/m 8,2 C -1,0 C 37,3 km/h (5 Bft)
01.12.2011 13:30 9,9 C 91 % 1006,5 hPa 0,0 l/m 39,6 km/h (6 Bft) W-SW 255 0 min 0 W/m 8,5 C -1,2 C 39,6 km/h (6 Bft)
01.12.2011 13:45 10,0 C 90 % 1006,5 hPa 0,0 l/m 44,5 km/h (6 Bft) W 265 0 min 0 W/m 8,4 C -1,7 C 44,5 km/h (6 Bft)
01.12.2011 14:00 10,1 C 90 % 1006,5 hPa 0,0 l/m 35,3 km/h (5 Bft) W-SW 255 0 min 0 W/m 8,5 C -0,2 C 35,3 km/h (5 Bft)
01.12.2011 14:15 10,3 C 90 % 1006,5 hPa 0,0 l/m 34,1 km/h (5 Bft) W-SW 250 0 min 0 W/m 8,7 C 0,3 C 34,1 km/h (5 Bft)
01.12.2011 14:30 10,4 C 89 % 1006,5 hPa 0,0 l/m 33,9 km/h (5 Bft) W 260 0 min 0 W/m 8,7 C 0,5 C 33,9 km/h (5 Bft)
01.12.2011 14:45 10,4 C 89 % 1005,5 hPa 0,0 l/m 31,9 km/h (5 Bft) W-SW 250 0 min 0 W/m 8,7 C 0,8 C 31,9 km/h (5 Bft)
01.12.2011 14:59 10,4 C 89 % 1005,5 hPa 0,0 l/m 35,1 km/h (5 Bft) W 260 0 min 0 W/m 8,7 C 0,3 C 35,1 km/h (5 Bft)
01.12.2011 15:15 10,3 C 90 % 1005,5 hPa 0,0 l/m 32,7 km/h (5 Bft) W 260 0 min 0 W/m 8,7 C 0,5 C 32,7 km/h (5 Bft)
01.12.2011 15:30 10,2 C 91 % 1005,5 hPa 0,3 l/m 26,5 km/h (4 Bft) W-SW 250 0 min 0 W/m 8,8 C 1,7 C 26,5 km/h (4 Bft)
01.12.2011 15:45 10,1 C 91 % 1005,5 hPa 0,0 l/m 27,2 km/h (5 Bft) W-SW 245 0 min 0 W/m 8,7 C 1,4 C 27,2 km/h (5 Bft)
01.12.2011 16:00 10,1 C 92 % 1005,5 hPa 0,0 l/m 26,0 km/h (4 Bft) W-SW 250 0 min 0 W/m 8,9 C 1,7 C 26,0 km/h (4 Bft)
01.12.2011 16:15 10,1 C 92 % 1005,5 hPa 0,0 l/m 21,0 km/h (4 Bft) W-SW 240 0 min 0 W/m 8,9 C 3,1 C 21,0 km/h (4 Bft)
01.12.2011 16:30 10,2 C 92 % 1005,5 hPa 0,3 l/m 25,0 km/h (4 Bft) W-SW 250 0 min 0 W/m 9,0 C 2,1 C 25,0 km/h (4 Bft)
01.12.2011 16:45 10,2 C 92 % 1005,5 hPa 0,3 l/m 28,5 km/h (5 Bft) W-SW 255 0 min 0 W/m 9,0 C 1,3 C 28,5 km/h (5 Bft)
01.12.2011 17:00 10,2 C 92 % 1005,5 hPa 0,6 l/m 23,2 km/h (4 Bft) W 260 0 min 0 W/m 9,0 C 2,6 C 23,2 km/h (4 Bft)
01.12.2011 17:14 9,8 C 92 % 1005,5 hPa 4,8 l/m 36,5 km/h (5 Bft) NW 315 0 min 0 W/m 8,6 C -0,9 C 36,5 km/h (5 Bft)
01.12.2011 17:30 9,6 C 93 % 1005,5 hPa 0,6 l/m 21,1 km/h (4 Bft) NW 305 0 min 0 W/m 8,5 C 2,4 C 21,1 km/h (4 Bft)
01.12.2011 17:45 9,5 C 93 % 1005,5 hPa 0,6 l/m 17,4 km/h (3 Bft) NW 305 0 min 0 W/m 8,4 C 3,6 C 17,4 km/h (3 Bft)
01.12.2011 18:00 9,4 C 93 % 1006,5 hPa 0,6 l/m 15,7 km/h (3 Bft) W 270 0 min 0 W/m 8,3 C 4,1 C 15,7 km/h (3 Bft)
01.12.2011 18:14 9,3 C 93 % 1006,5 hPa 0,0 l/m 17,7 km/h (3 Bft) W 265 0 min 0 W/m 8,2 C 3,2 C 17,7 km/h (3 Bft)
01.12.2011 18:30 9,2 C 93 % 1006,5 hPa 0,3 l/m 14,8 km/h (3 Bft) W 260 0 min 0 W/m 8,1 C 4,3 C 14,8 km/h (3 Bft)
01.12.2011 18:45 8,9 C 93 % 1006,5 hPa 0,0 l/m 12,1 km/h (2 Bft) W 260 0 min 0 W/m 7,8 C 5,2 C 12,1 km/h (2 Bft)
01.12.2011 19:00 8,8 C 93 % 1005,5 hPa 0,0 l/m 11,0 km/h (2 Bft) W 260 0 min 0 W/m 7,7 C 5,7 C 11,0 km/h (2 Bft)
01.12.2011 19:15 8,8 C 92 % 1006,5 hPa 0,0 l/m 11,8 km/h (2 Bft) W 270 0 min 0 W/m 7,6 C 5,2 C 11,8 km/h (2 Bft)
01.12.2011 19:30 8,8 C 92 % 1006,5 hPa 0,0 l/m 16,6 km/h (3 Bft) W 260 0 min 0 W/m 7,6 C 3,0 C 16,6 km/h (3 Bft)
01.12.2011 19:45 8,8 C 92 % 1006,5 hPa 0,0 l/m 20,6 km/h (4 Bft) W 265 0 min 0 W/m 7,6 C 1,5 C 20,6 km/h (4 Bft)
01.12.2011 20:00 8,8 C 92 % 1006,5 hPa 0,0 l/m 17,5 km/h (3 Bft) W 270 0 min 0 W/m 7,6 C 2,6 C 17,5 km/h (3 Bft)
01.12.2011 20:15 8,8 C 92 % 1006,5 hPa 0,0 l/m 18,4 km/h (3 Bft) W 270 0 min 0 W/m 7,6 C 2,3 C 18,4 km/h (3 Bft)
01.12.2011 20:30 8,8 C 92 % 1006,5 hPa 0,0 l/m 19,3 km/h (3 Bft) W 265 0 min 0 W/m 7,6 C 2,0 C 19,3 km/h (3 Bft)
01.12.2011 20:45 8,8 C 92 % 1006,5 hPa 0,0 l/m 17,5 km/h (3 Bft) W 270 0 min 0 W/m 7,6 C 2,6 C 17,5 km/h (3 Bft)
01.12.2011 21:00 8,8 C 92 % 1005,5 hPa 0,0 l/m 16,3 km/h (3 Bft) W 265 0 min 0 W/m 7,6 C 3,1 C 16,3 km/h (3 Bft)
01.12.2011 21:15 8,7 C 92 % 1005,5 hPa 0,0 l/m 14,2 km/h (3 Bft) W 280 0 min 0 W/m 7,5 C 3,9 C 14,2 km/h (3 Bft)
01.12.2011 21:30 8,6 C 91 % 1005,5 hPa 0,0 l/m 14,0 km/h (3 Bft) W-NW 290 0 min 0 W/m 7,2 C 3,9 C 14,0 km/h (3 Bft)
01.12.2011 21:45 8,5 C 91 % 1005,5 hPa 0,0 l/m 14,0 km/h (3 Bft) W 260 0 min 0 W/m 7,1 C 3,8 C 14,0 km/h (3 Bft)
01.12.2011 22:00 8,5 C 91 % 1005,5 hPa 0,0 l/m 9,6 km/h (2 Bft) W 275 0 min 0 W/m 7,1 C 6,2 C 9,6 km/h (2 Bft)
01.12.2011 22:15 8,4 C 91 % 1005,5 hPa 0,0 l/m 10,0 km/h (2 Bft) W 265 0 min 0 W/m 7,0 C 5,8 C 10,0 km/h (2 Bft)
01.12.2011 22:29 8,5 C 91 % 1005,5 hPa 0,0 l/m 8,2 km/h (2 Bft) W 260 0 min 0 W/m 7,1 C 7,1 C 8,2 km/h (2 Bft)
01.12.2011 22:45 8,5 C 90 % 1005,5 hPa 0,0 l/m 7,9 km/h (2 Bft) W-SW 245 0 min 0 W/m 7,0 C 7,4 C 7,9 km/h (2 Bft)
01.12.2011 23:00 8,5 C 90 % 1005,5 hPa 0,0 l/m 8,7 km/h (2 Bft) W-SW 240 0 min 0 W/m 7,0 C 6,8 C 8,7 km/h (2 Bft)
01.12.2011 23:15 8,4 C 90 % 1005,5 hPa 0,0 l/m 5,7 km/h (2 Bft) W-SW 240 0 min 0 W/m 6,9 C 8,4 C 5,7 km/h (2 Bft)
01.12.2011 23:30 8,4 C 90 % 1005,5 hPa 0,0 l/m 5,9 km/h (2 Bft) W-SW 240 0 min 0 W/m 6,9 C 8,4 C 5,9 km/h (2 Bft)
01.12.2011 23:45 8,4 C 90 % 1004,5 hPa 0,3 l/m 4,2 km/h (1 Bft) W-SW 240 0 min 0 W/m 6,9 C 8,4 C 4,2 km/h (1 Bft)
_ Min-Zeit 06:15 05:30 23:45 - 23:45 - - - - 06:15 06:44 23:45
Minimum _ 6,0 C 77 % 1004,5 hPa - 4,2 km/h (1 Bft) - - - - 2,3 C -5,8 C 4,2 km/h (1 Bft)
_ Max-Zeit 14:30 17:30 00:00 17:14 13:45 - - 00:00 00:00 16:30 23:15 13:45
Maximum _ 10,4 C 93 % 1020,5 hPa 4,8 l/m 44,5 km/h
W (6 Bft)
- - 0 min 0 W/m 9,0 C 8,4 C 44,5 km/h
W (6 Bft)
Durchschnitt _ 8,1 C 86 % 1009,2 hPa #9,0 l/m 25,9 km/h (4 Bft) SW - #0 min. 0 W/m 5,9 C -0,4 C 25,9 km/h (4 Bft)
copyright by Holger Just